Regional Weather Roundup
Issued by NWS Burlington, VT

Home | Current Version | Previous Version | Graphics & Text | Print | Product List | Glossary On
Versions: 1 2 3 4 5 6 7 8 9 10 11 12 13 14 15 16 17 18 19 20 21 22 23 24 25 26 27 28 29 30 31 32 33 34 35 36 37 38 39 40 41 42 43 44 45 46 47 48 49 50
000
ASUS41 KBTV 202310
RWRBTV
VERMONT REGIONAL WEATHER ROUNDUP
NATIONAL WEATHER SERVICE BURLINGTON VT
700 PM EDT SAT SEP 20 2014

NOTE: "FAIR" INDICATES FEW OR NO CLOUDS BELOW 12,000 FEET WITH NO
SIGNIFICANT WEATHER AND/OR OBSTRUCTIONS TO VISIBILITY.

* THESE REPORTS ARE NOT UNDER NWS QUALITY CONTROL AND/OR DO NOT
  REPORT WEATHER SUCH AS PRECIPITATION AND FOG.

VTZ001>019-210000-
_____VERMONT_____


CITY           SKY/WX    TMP DP  RH WIND       PRES   REMARKS
BURLINGTON     MOCLDY    67  56  67 S12G20    29.99F
MONTPELIER     CLOUDY    58  54  86 S5        30.09S
MORRISVILLE    CLOUDY    62  55  77 CALM      30.03S
ST. JOHNSBURY*   N/A     60  53  77 MISG      30.04S
MIDDLEBURY*    CLOUDY    66  57  72 SE7       30.02F
RUTLAND*       CLOUDY    64  55  72 SE7       30.05F
SPRINGFIELD    CLOUDY    63  57  81 S5        30.08S
HIGHGATE*      FAIR      66  56  71 S10G18    29.95S
NEWPORT*       CLOUDY    58  53  85 S3        30.02S
BENNINGTON     MOCLDY    65  55  70 SE7       30.07F
SUTTON*          N/A     55 N/A N/A MISG        N/A

_____LAKE CHAMPLAIN_____


CITY           SKY/WX    TMP DP  RH WIND       PRES   REMARKS
COLCHESTER RF*   N/A     66  59  77 S24         N/A

$$

NYZ007-026>031-035-052-083-210000-
_____NORTHERN NEW YORK_____


CITY           SKY/WX    TMP DP  RH WIND       PRES   REMARKS
PLATTSBURGH    MOCLDY    64  57  78 S12       29.95F
SARANAC LAKE   MOCLDY    62  55  77 S12       29.97F
MASSENA        PTCLDY    69  59  70 S14       29.85F
OGDENSBURG*    CLEAR     70  61  73 S10G17    29.85F
POTSDAM*       CLEAR     68  61  77 S16G23    29.86F
WATERTOWN      PTCLDY    71  57  61 S9        29.89F
FT DRUM        PTCLDY    68  56  64 S15       29.90F
ALBANY         MOCLDY    70  56  61 S13G25    30.04F
GLENS FALLS    CLOUDY    68  57  68 S8        30.03F

$$
NHZ002-005-011-210000-
_____NEW HAMPSHIRE_____


CITY           SKY/WX    TMP DP  RH WIND       PRES   REMARKS
LEBANON        CLOUDY    66  55  67 S12       30.06F
KEENE          CLOUDY    64  52  63 S3        30.11S
MT WASHINGTON  FOG       45  45 100 W58         N/A  VSB 0
PLYMOUTH       MOCLDY    54  52  95 CALM      30.11S
WHITEFIELD     CLOUDY    63  53  70 CALM      30.06S

$$

_____REGIONAL QUEBEC LOCATIONS_____


CITY           SKY/WX    TMP DP  RH WIND       PRES   REMARKS
MONTREAL       LGT RAIN  66  59  77 S20       29.83F
QUEBEC CITY    SHOWER    55  54  94 NE3       29.86F FOG
SHERBROOKE     CLOUDY    63  54  72 S10G17    29.98S

_____REGIONAL ONTARIO LOCATIONS_____


CITY           SKY/WX    TMP DP  RH WIND       PRES   REMARKS
OTTAWA         MOCLDY    68  61  77 S14G23    29.82S

______KEY______
VSB  - VISIBILITY IN MILES
WCI  - WIND CHILL INDEX
HX   - HEAT INDEX
$$
NNNN



USA.gov is the U.S. government's official web portal to all federal, state and local government web resources and services.